Time,TemperatureF,DewpointF,PressureIn,WindDirection,WindDirectionDegrees,WindSpeedMPH,WindSpeedGustMPH,Humidity,HourlyPrecipIn,Conditions,Clouds,dailyrainin,SoftwareType,DateUTC
2013-07-26 00:01:00,63.0,59.4,29.31,NNW,346,0.0,0.0,88,0.00,,,0.00,meteohub,2013-07-26 04:01:00,
2013-07-26 00:02:00,63.0,59.4,29.31,NNW,346,0.0,0.0,88,0.00,,,0.00,meteohub,2013-07-26 04:02:00,
2013-07-26 00:07:00,62.8,59.2,29.31,NNW,346,0.0,0.0,88,0.00,,,0.00,meteohub,2013-07-26 04:07:00,
2013-07-26 00:12:00,62.6,59.0,29.31,NNW,346,0.0,0.0,88,0.00,,,0.00,meteohub,2013-07-26 04:12:00,
2013-07-26 00:17:00,62.4,59.2,29.31,NNW,346,0.0,0.0,89,0.00,,,0.00,meteohub,2013-07-26 04:17:00,
2013-07-26 00:22:00,62.2,59.0,29.31,NNW,346,0.0,0.0,89,0.00,,,0.00,meteohub,2013-07-26 04:22:00,
2013-07-26 00:27:00,62.2,58.6,29.31,NNW,346,0.0,0.0,88,0.00,,,0.00,meteohub,2013-07-26 04:27:00,
2013-07-26 00:32:00,62.1,58.8,29.31,NNW,346,0.0,0.0,89,0.00,,,0.00,meteohub,2013-07-26 04:32:00,
2013-07-26 00:37:00,62.1,58.8,29.31,NNW,346,0.0,0.0,89,0.00,,,0.00,meteohub,2013-07-26 04:37:00,
2013-07-26 00:42:00,62.1,59.2,29.31,NNW,346,0.0,0.0,90,0.00,,,0.00,meteohub,2013-07-26 04:42:00,
2013-07-26 00:47:00,61.9,59.0,29.31,NNW,346,0.0,0.0,90,0.00,,,0.00,meteohub,2013-07-26 04:47:00,
2013-07-26 00:52:00,61.9,59.0,29.31,NNW,346,0.0,0.0,90,0.00,,,0.00,meteohub,2013-07-26 04:52:00,
2013-07-26 00:57:00,61.7,58.8,29.31,NNW,346,0.0,0.0,90,0.00,,,0.00,meteohub,2013-07-26 04:57:00,
2013-07-26 01:02:00,61.7,59.0,29.31,NNW,346,0.0,0.0,91,0.00,,,0.00,meteohub,2013-07-26 05:02:00,
2013-07-26 01:08:00,61.5,58.8,29.31,NNW,346,0.0,0.0,91,0.00,,,0.00,meteohub,2013-07-26 05:08:00,
2013-07-26 01:13:00,61.5,58.8,29.31,NNW,346,0.0,0.0,91,0.00,,,0.00,meteohub,2013-07-26 05:13:00,
2013-07-26 01:18:00,61.5,58.8,29.31,NNW,346,0.0,0.0,91,0.00,,,0.00,meteohub,2013-07-26 05:18:00,
2013-07-26 01:23:00,61.5,58.8,29.31,NNW,346,0.0,0.0,91,0.00,,,0.00,meteohub,2013-07-26 05:23:00,
2013-07-26 01:28:00,61.5,58.8,29.31,NNW,346,0.0,0.0,91,0.00,,,0.00,meteohub,2013-07-26 05:28:00,
2013-07-26 01:33:00,61.3,59.0,29.31,NNW,346,0.0,0.0,92,0.00,,,0.00,meteohub,2013-07-26 05:33:00,
2013-07-26 01:38:00,61.3,59.0,29.31,NNW,346,0.0,0.0,92,0.00,,,0.00,meteohub,2013-07-26 05:38:00,
2013-07-26 01:43:00,61.3,59.0,29.31,NNW,346,0.0,0.0,92,0.00,,,0.00,meteohub,2013-07-26 05:43:00,
2013-07-26 01:48:00,61.3,59.0,29.31,NNW,346,0.0,0.0,92,0.00,,,0.00,meteohub,2013-07-26 05:48:00,
2013-07-26 01:53:00,61.3,59.0,29.31,NNW,346,0.0,0.0,92,0.00,,,0.00,meteohub,2013-07-26 05:53:00,
2013-07-26 01:58:00,61.3,59.4,29.31,NNW,346,0.0,0.0,93,0.00,,,0.00,meteohub,2013-07-26 05:58:00,
2013-07-26 02:03:00,61.3,59.4,29.31,NNW,346,0.0,0.0,93,0.00,,,0.00,meteohub,2013-07-26 06:03:00,
2013-07-26 02:08:00,61.3,59.4,29.31,NNW,346,0.0,0.0,93,0.00,,,0.00,meteohub,2013-07-26 06:08:00,
2013-07-26 02:13:00,61.3,59.4,29.31,NNW,346,0.0,0.0,93,0.00,,,0.00,meteohub,2013-07-26 06:13:00,
2013-07-26 02:18:00,61.3,59.4,29.31,NNW,346,0.0,0.0,93,0.00,,,0.00,meteohub,2013-07-26 06:18:00,
2013-07-26 02:23:00,61.5,59.5,29.31,NNW,346,0.0,0.0,93,0.00,,,0.00,meteohub,2013-07-26 06:23:00,
2013-07-26 02:28:00,61.5,59.5,29.31,NNW,346,0.0,0.0,93,0.00,,,0.00,meteohub,2013-07-26 06:28:00,
2013-07-26 02:33:00,61.5,59.5,29.31,NNW,346,0.0,0.0,93,0.00,,,0.00,meteohub,2013-07-26 06:33:00,
2013-07-26 02:38:00,61.5,59.5,29.31,NNW,346,0.0,0.0,93,0.00,,,0.00,meteohub,2013-07-26 06:38:00,
2013-07-26 02:43:00,61.7,59.7,29.31,NNW,346,0.0,0.0,93,0.00,,,0.00,meteohub,2013-07-26 06:43:00,
2013-07-26 02:48:00,61.7,59.7,29.31,NNW,346,0.0,0.0,93,0.00,,,0.00,meteohub,2013-07-26 06:48:00,
2013-07-26 02:53:00,61.5,59.5,29.31,NNW,346,0.0,0.0,93,0.00,,,0.00,meteohub,2013-07-26 06:53:00,
2013-07-26 02:58:00,61.7,59.7,29.31,NNW,346,0.0,0.0,93,0.00,,,0.00,meteohub,2013-07-26 06:58:00,
2013-07-26 03:03:00,61.7,59.9,29.31,NNW,346,0.0,0.0,94,0.00,,,0.00,meteohub,2013-07-26 07:03:00,
2013-07-26 03:08:00,61.7,59.9,29.31,NNW,346,0.0,0.0,94,0.00,,,0.00,meteohub,2013-07-26 07:08:00,
2013-07-26 03:13:00,61.7,59.9,29.31,NNW,346,0.0,0.0,94,0.00,,,0.00,meteohub,2013-07-26 07:13:00,
2013-07-26 03:18:00,61.7,59.9,29.31,NNW,346,0.0,0.0,94,0.00,,,0.00,meteohub,2013-07-26 07:18:00,
2013-07-26 03:23:00,61.7,59.9,29.31,NNW,346,0.0,0.0,94,0.00,,,0.00,meteohub,2013-07-26 07:23:00,
2013-07-26 03:28:00,61.7,59.9,29.30,NNW,346,0.0,0.0,94,0.00,,,0.00,meteohub,2013-07-26 07:28:00,
2013-07-26 03:33:00,61.7,59.9,29.30,NNW,346,0.0,0.0,94,0.00,,,0.00,meteohub,2013-07-26 07:33:00,
2013-07-26 03:38:00,61.7,59.9,29.30,NNW,346,0.0,0.0,94,0.00,,,0.00,meteohub,2013-07-26 07:38:00,
2013-07-26 03:43:00,61.5,59.7,29.30,NNW,346,0.0,0.0,94,0.00,,,0.00,meteohub,2013-07-26 07:43:00,
2013-07-26 03:48:00,61.5,59.7,29.30,NNW,346,0.0,0.0,94,0.00,,,0.00,meteohub,2013-07-26 07:48:00,
2013-07-26 03:53:00,61.5,59.7,29.30,NNW,346,0.0,0.0,94,0.00,,,0.00,meteohub,2013-07-26 07:53:00,
2013-07-26 03:58:00,61.7,59.9,29.30,NNW,346,0.0,0.0,94,0.00,,,0.00,meteohub,2013-07-26 07:58:00,
2013-07-26 04:03:00,61.7,59.9,29.31,NNW,346,0.0,0.0,94,0.00,,,0.00,meteohub,2013-07-26 08:03:00,
2013-07-26 04:08:00,61.7,59.9,29.31,NNW,346,0.0,0.0,94,0.00,,,0.00,meteohub,2013-07-26 08:08:00,
2013-07-26 04:14:00,61.7,59.9,29.30,NNW,346,0.0,0.0,94,0.00,,,0.00,meteohub,2013-07-26 08:14:00,
2013-07-26 04:19:00,61.7,59.9,29.30,NNW,346,0.0,0.0,94,0.00,,,0.00,meteohub,2013-07-26 08:19:00,
2013-07-26 04:24:00,61.5,59.7,29.30,NNW,346,0.0,0.0,94,0.00,,,0.00,meteohub,2013-07-26 08:24:00,
2013-07-26 04:29:00,61.5,59.7,29.31,NNW,346,0.0,0.0,94,0.00,,,0.00,meteohub,2013-07-26 08:29:00,
2013-07-26 04:34:00,61.5,59.7,29.31,NNW,346,0.0,0.0,94,0.00,,,0.00,meteohub,2013-07-26 08:34:00,
2013-07-26 04:39:00,61.5,59.7,29.31,NNW,346,0.0,0.0,94,0.00,,,0.00,meteohub,2013-07-26 08:39:00,
2013-07-26 04:44:00,61.5,59.7,29.31,NNW,346,0.0,0.0,94,0.00,,,0.00,meteohub,2013-07-26 08:44:00,
2013-07-26 04:49:00,61.3,59.5,29.31,NNW,346,0.0,0.0,94,0.00,,,0.00,meteohub,2013-07-26 08:49:00,
2013-07-26 04:54:00,61.3,59.5,29.31,NNW,346,0.0,0.0,94,0.00,,,0.00,meteohub,2013-07-26 08:54:00,
2013-07-26 04:59:00,61.5,59.7,29.31,NNW,346,0.0,0.0,94,0.00,,,0.00,meteohub,2013-07-26 08:59:00,
2013-07-26 05:04:00,61.5,59.7,29.31,NNW,346,0.0,0.0,94,0.00,,,0.00,meteohub,2013-07-26 09:04:00,
2013-07-26 05:09:00,61.5,60.1,29.31,NNW,346,0.0,0.0,95,0.00,,,0.00,meteohub,2013-07-26 09:09:00,
2013-07-26 05:14:00,61.5,60.1,29.31,NNW,346,0.0,0.0,95,0.00,,,0.00,meteohub,2013-07-26 09:14:00,
2013-07-26 05:19:00,61.5,60.1,29.31,NNW,346,0.0,0.0,95,0.00,,,0.00,meteohub,2013-07-26 09:19:00,
2013-07-26 05:24:00,61.7,60.3,29.31,NNW,346,0.0,0.0,95,0.00,,,0.00,meteohub,2013-07-26 09:24:00,
2013-07-26 05:29:00,61.7,60.3,29.31,NNW,346,0.0,0.0,95,0.00,,,0.00,meteohub,2013-07-26 09:29:00,
2013-07-26 05:34:00,61.7,60.3,29.31,NNW,346,0.0,0.0,95,0.00,,,0.00,meteohub,2013-07-26 09:34:00,
2013-07-26 05:39:00,61.7,60.3,29.31,NNW,346,0.0,0.0,95,0.00,,,0.00,meteohub,2013-07-26 09:39:00,
2013-07-26 05:44:00,61.9,60.4,29.31,NNW,346,0.0,0.0,95,0.00,,,0.00,meteohub,2013-07-26 09:44:00,
2013-07-26 05:49:00,61.9,60.4,29.31,NNW,346,0.0,0.0,95,0.00,,,0.00,meteohub,2013-07-26 09:49:00,
2013-07-26 05:54:00,61.9,60.4,29.32,NNW,346,0.0,0.0,95,0.00,,,0.00,meteohub,2013-07-26 09:54:00,
2013-07-26 05:59:00,61.9,60.4,29.32,NNW,346,0.0,0.0,95,0.00,,,0.00,meteohub,2013-07-26 09:59:00,
2013-07-26 06:04:00,61.9,60.4,29.32,NNW,346,0.0,0.0,95,0.00,,,0.00,meteohub,2013-07-26 10:04:00,
2013-07-26 06:09:00,62.1,60.6,29.32,NNW,346,0.0,0.0,95,0.00,,,0.00,meteohub,2013-07-26 10:09:00,
2013-07-26 06:14:00,62.1,60.6,29.32,NNW,346,0.0,0.0,95,0.00,,,0.00,meteohub,2013-07-26 10:14:00,
2013-07-26 06:19:00,62.1,60.6,29.32,NNW,346,0.0,0.0,95,0.00,,,0.00,meteohub,2013-07-26 10:19:00,
2013-07-26 06:24:00,62.1,60.6,29.32,NNW,346,0.0,0.0,95,0.00,,,0.00,meteohub,2013-07-26 10:24:00,
2013-07-26 06:29:00,62.1,60.6,29.31,NNW,346,0.0,0.0,95,0.00,,,0.00,meteohub,2013-07-26 10:29:00,
2013-07-26 06:34:00,62.1,60.6,29.31,NNW,346,0.0,0.0,95,0.00,,,0.00,meteohub,2013-07-26 10:34:00,
2013-07-26 06:39:00,62.1,60.6,29.32,NNW,346,0.0,0.0,95,0.00,,,0.00,meteohub,2013-07-26 10:39:00,
2013-07-26 06:44:00,62.1,60.6,29.32,NNW,346,0.0,0.0,95,0.00,,,0.00,meteohub,2013-07-26 10:44:00,
2013-07-26 06:49:00,62.1,60.6,29.32,NNW,346,0.0,0.0,95,0.00,,,0.00,meteohub,2013-07-26 10:49:00,
2013-07-26 06:54:00,62.2,60.8,29.32,NNW,346,0.0,0.0,95,0.00,,,0.00,meteohub,2013-07-26 10:54:00,
2013-07-26 06:59:00,62.2,60.8,29.32,NNW,346,0.0,0.0,95,0.00,,,0.00,meteohub,2013-07-26 10:59:00,
2013-07-26 07:04:00,62.2,60.8,29.32,NNW,346,0.0,0.0,95,0.00,,,0.00,meteohub,2013-07-26 11:04:00,
2013-07-26 07:09:00,62.4,61.0,29.32,NNW,346,0.0,0.0,95,0.00,,,0.00,meteohub,2013-07-26 11:09:00,
2013-07-26 07:14:00,62.4,61.0,29.32,NNW,346,0.0,0.0,95,0.00,,,0.00,meteohub,2013-07-26 11:14:00,
2013-07-26 07:20:00,62.6,61.2,29.32,NNW,346,0.0,0.0,95,0.00,,,0.00,meteohub,2013-07-26 11:20:00,
2013-07-26 07:25:00,62.8,61.3,29.32,NNW,346,0.0,2.0,95,0.00,,,0.00,meteohub,2013-07-26 11:25:00,
2013-07-26 07:30:00,62.8,61.3,29.33,NNW,346,0.0,2.0,95,0.00,,,0.00,meteohub,2013-07-26 11:30:00,
2013-07-26 07:35:00,62.8,61.3,29.33,NNW,346,0.0,2.0,95,0.00,,,0.00,meteohub,2013-07-26 11:35:00,
2013-07-26 07:40:00,62.8,61.3,29.33,NNW,346,0.0,0.0,95,0.00,,,0.00,meteohub,2013-07-26 11:40:00,
2013-07-26 07:45:00,62.8,61.0,29.33,NNW,346,0.0,0.0,94,0.00,,,0.00,meteohub,2013-07-26 11:45:00,
2013-07-26 07:50:00,62.8,61.3,29.34,NNW,346,0.0,0.0,95,0.00,,,0.00,meteohub,2013-07-26 11:50:00,
2013-07-26 07:55:00,62.8,61.0,29.34,NNW,346,0.0,0.0,94,0.00,,,0.00,meteohub,2013-07-26 11:55:00,
2013-07-26 08:00:00,63.0,61.2,29.34,NNW,346,0.0,0.0,94,0.00,,,0.00,meteohub,2013-07-26 12:00:00,
2013-07-26 08:05:00,63.1,61.3,29.34,NNW,346,0.0,0.0,94,0.00,,,0.00,meteohub,2013-07-26 12:05:00,
2013-07-26 08:10:00,63.3,61.5,29.34,NNW,346,0.0,0.0,94,0.00,,,0.00,meteohub,2013-07-26 12:10:00,
2013-07-26 08:15:00,63.5,61.7,29.34,NNW,346,0.0,0.0,94,0.00,,,0.00,meteohub,2013-07-26 12:15:00,
2013-07-26 08:20:00,63.7,61.9,29.34,NNW,346,0.0,0.0,94,0.00,,,0.00,meteohub,2013-07-26 12:20:00,
2013-07-26 08:25:00,64.0,62.2,29.34,NNW,346,0.0,0.0,94,0.00,,,0.00,meteohub,2013-07-26 12:25:00,
2013-07-26 08:30:00,64.4,62.4,29.34,NNW,346,0.0,0.0,93,0.00,,,0.00,meteohub,2013-07-26 12:30:00,
2013-07-26 08:35:00,64.8,62.4,29.34,NNW,346,0.0,0.0,92,0.00,,,0.00,meteohub,2013-07-26 12:35:00,
2013-07-26 08:40:00,65.5,62.8,29.34,NNW,346,0.0,0.0,91,0.00,,,0.00,meteohub,2013-07-26 12:40:00,
2013-07-26 08:45:00,66.4,63.3,29.34,NNW,346,0.0,0.0,90,0.00,,,0.00,meteohub,2013-07-26 12:45:00,
2013-07-26 08:50:00,67.1,63.5,29.35,NNW,346,0.0,0.0,88,0.00,,,0.00,meteohub,2013-07-26 12:50:00,
2013-07-26 08:55:00,67.8,63.1,29.35,NNW,346,0.0,0.0,85,0.00,,,0.00,meteohub,2013-07-26 12:55:00,
2013-07-26 09:00:00,68.5,63.5,29.35,NNW,346,0.0,0.0,84,0.00,,,0.00,meteohub,2013-07-26 13:00:00,
2013-07-26 09:05:00,69.4,63.3,29.35,NNW,346,0.0,0.0,81,0.00,,,0.00,meteohub,2013-07-26 13:05:00,
2013-07-26 09:10:00,70.0,63.5,29.35,NNW,346,0.0,0.0,80,0.00,,,0.00,meteohub,2013-07-26 13:10:00,
2013-07-26 09:15:00,70.7,63.9,29.35,NNW,346,0.0,0.0,79,0.00,,,0.00,meteohub,2013-07-26 13:15:00,
2013-07-26 09:20:00,71.2,63.7,29.35,NNW,346,0.0,0.0,77,0.00,,,0.00,meteohub,2013-07-26 13:20:00,
2013-07-26 09:25:00,72.0,64.4,29.35,NNW,346,0.0,0.0,77,0.00,,,0.00,meteohub,2013-07-26 13:25:00,
2013-07-26 09:30:00,72.3,63.5,29.35,NNW,346,0.0,0.0,74,0.00,,,0.00,meteohub,2013-07-26 13:30:00,
2013-07-26 09:35:00,72.9,63.7,29.35,SSW,209,0.0,0.0,73,0.00,,,0.00,meteohub,2013-07-26 13:35:00,
2013-07-26 09:40:00,73.6,65.5,29.35,SSW,209,0.0,0.0,76,0.00,,,0.00,meteohub,2013-07-26 13:40:00,
2013-07-26 09:45:00,74.1,64.9,29.35,SSW,209,0.0,0.0,73,0.00,,,0.00,meteohub,2013-07-26 13:45:00,
2013-07-26 09:50:00,74.7,64.2,29.35,SSW,209,0.0,0.0,70,0.00,,,0.00,meteohub,2013-07-26 13:50:00,
2013-07-26 09:55:00,75.0,64.2,29.35,ESE,117,0.0,0.0,69,0.00,,,0.00,meteohub,2013-07-26 13:55:00,
2013-07-26 10:00:00,75.4,64.0,29.35,ESE,111,0.0,0.0,68,0.00,,,0.00,meteohub,2013-07-26 14:00:00,
2013-07-26 10:05:00,75.9,64.2,29.35,ENE,69,0.0,0.0,67,0.00,,,0.00,meteohub,2013-07-26 14:05:00,
2013-07-26 10:10:00,75.9,64.2,29.35,ENE,57,0.0,0.0,67,0.00,,,0.00,meteohub,2013-07-26 14:10:00,
2013-07-26 10:15:00,76.5,64.8,29.35,ENE,57,0.0,0.0,67,0.00,,,0.00,meteohub,2013-07-26 14:15:00,
2013-07-26 10:20:00,76.6,64.0,29.35,ENE,57,0.0,0.0,65,0.00,,,0.00,meteohub,2013-07-26 14:20:00,
2013-07-26 10:25:00,76.6,64.4,29.35,ENE,60,0.0,0.0,66,0.00,,,0.00,meteohub,2013-07-26 14:25:00,
2013-07-26 10:31:00,76.8,64.2,29.35,East,94,0.0,0.0,65,0.00,,,0.00,meteohub,2013-07-26 14:31:00,
2013-07-26 10:36:00,77.0,64.8,29.35,East,94,0.0,0.0,66,0.00,,,0.00,meteohub,2013-07-26 14:36:00,
2013-07-26 10:41:00,76.8,63.7,29.35,NE,49,0.0,4.0,64,0.00,,,0.00,meteohub,2013-07-26 14:41:00,
2013-07-26 10:46:00,76.8,64.9,29.35,NE,49,0.0,4.0,67,0.00,,,0.00,meteohub,2013-07-26 14:46:00,
2013-07-26 10:51:00,76.8,64.6,29.35,NE,42,0.0,4.0,66,0.00,,,0.00,meteohub,2013-07-26 14:51:00,
2013-07-26 10:56:00,77.0,64.8,29.35,NE,42,0.0,1.0,66,0.00,,,0.00,meteohub,2013-07-26 14:56:00,
2013-07-26 11:01:00,76.6,64.4,29.35,NE,49,0.0,2.0,66,0.00,,,0.00,meteohub,2013-07-26 15:01:00,
2013-07-26 11:06:00,77.0,65.7,29.35,NE,49,0.0,2.0,68,0.00,,,0.00,meteohub,2013-07-26 15:06:00,
2013-07-26 11:11:00,77.2,65.3,29.35,East,93,0.0,2.0,67,0.00,,,0.00,meteohub,2013-07-26 15:11:00,
2013-07-26 11:16:00,77.2,64.0,29.35,ENE,61,0.0,2.0,64,0.00,,,0.00,meteohub,2013-07-26 15:16:00,
2013-07-26 11:21:00,77.4,64.2,29.35,ENE,78,0.0,2.0,64,0.00,,,0.00,meteohub,2013-07-26 15:21:00,
2013-07-26 11:27:00,77.5,63.9,29.35,NNE,18,0.0,2.0,63,0.00,,,0.00,meteohub,2013-07-26 15:27:00,
2013-07-26 11:32:00,77.9,63.9,29.35,NNE,18,0.0,2.0,62,0.00,,,0.00,meteohub,2013-07-26 15:32:00,
2013-07-26 11:37:00,77.9,63.3,29.34,ENE,65,0.0,2.0,61,0.00,,,0.00,meteohub,2013-07-26 15:37:00,
2013-07-26 11:42:00,77.9,64.2,29.34,ENE,65,0.0,1.0,63,0.00,,,0.00,meteohub,2013-07-26 15:42:00,
2013-07-26 11:47:00,78.1,65.3,29.34,ENE,65,0.0,1.0,65,0.00,,,0.00,meteohub,2013-07-26 15:47:00,
2013-07-26 11:52:00,78.3,63.3,29.34,NE,42,0.0,1.0,60,0.00,,,0.00,meteohub,2013-07-26 15:52:00,
2013-07-26 11:57:00,78.1,62.1,29.34,ENE,57,0.0,1.0,58,0.00,,,0.00,meteohub,2013-07-26 15:57:00,
2013-07-26 12:02:00,78.1,64.0,29.35,NE,51,0.0,1.0,62,0.00,,,0.00,meteohub,2013-07-26 16:02:00,
2013-07-26 12:07:00,77.9,63.9,29.34,NE,51,0.0,0.0,62,0.00,,,0.00,meteohub,2013-07-26 16:07:00,
2013-07-26 12:12:00,78.3,64.6,29.34,NE,51,0.0,0.0,63,0.00,,,0.00,meteohub,2013-07-26 16:12:00,
2013-07-26 12:17:00,78.4,63.3,29.34,ENE,65,0.0,0.0,60,0.00,,,0.00,meteohub,2013-07-26 16:17:00,
2013-07-26 12:22:00,78.6,63.1,29.34,ENE,66,0.0,2.0,59,0.00,,,0.00,meteohub,2013-07-26 16:22:00,
2013-07-26 12:27:00,78.3,62.8,29.34,ENE,66,0.0,2.0,59,0.00,,,0.00,meteohub,2013-07-26 16:27:00,
2013-07-26 12:32:00,78.3,64.2,29.34,NW,304,0.0,2.0,62,0.00,,,0.00,meteohub,2013-07-26 16:32:00,
2013-07-26 12:37:00,78.3,63.3,29.34,NNE,15,0.0,1.0,60,0.00,,,0.00,meteohub,2013-07-26 16:37:00,
2013-07-26 12:42:00,78.4,63.9,29.34,SW,221,0.0,1.0,61,0.00,,,0.00,meteohub,2013-07-26 16:42:00,
2013-07-26 12:47:00,78.3,62.2,29.34,ENE,65,0.0,1.0,58,0.00,,,0.00,meteohub,2013-07-26 16:47:00,
2013-07-26 12:52:00,78.4,62.4,29.34,South,175,0.0,1.0,58,0.00,,,0.00,meteohub,2013-07-26 16:52:00,
2013-07-26 12:57:00,79.0,63.5,29.33,NE,44,0.0,2.0,59,0.00,,,0.00,meteohub,2013-07-26 16:57:00,
2013-07-26 13:02:00,79.3,64.2,29.33,SSW,207,0.0,2.0,60,0.00,,,0.00,meteohub,2013-07-26 17:02:00,
2013-07-26 13:07:00,79.7,63.7,29.33,SW,225,0.0,2.0,58,0.00,,,0.00,meteohub,2013-07-26 17:07:00,
2013-07-26 13:12:00,79.3,63.7,29.33,NNE,17,0.0,2.0,59,0.00,,,0.00,meteohub,2013-07-26 17:12:00,
2013-07-26 13:17:00,79.2,63.7,29.33,NNE,17,0.0,2.0,59,0.00,,,0.00,meteohub,2013-07-26 17:17:00,
2013-07-26 13:22:00,79.3,65.1,29.32,NNE,17,0.0,2.0,62,0.00,,,0.00,meteohub,2013-07-26 17:22:00,
2013-07-26 13:27:00,79.5,64.9,29.32,NE,53,0.0,1.0,61,0.00,,,0.00,meteohub,2013-07-26 17:27:00,
2013-07-26 13:32:00,79.9,64.2,29.32,NE,37,0.0,1.0,59,0.00,,,0.00,meteohub,2013-07-26 17:32:00,
2013-07-26 13:37:00,79.9,62.8,29.33,NNE,13,0.0,1.0,56,0.00,,,0.00,meteohub,2013-07-26 17:37:00,
2013-07-26 13:42:00,79.9,63.9,29.33,NNE,13,0.0,3.0,58,0.00,,,0.00,meteohub,2013-07-26 17:42:00,
2013-07-26 13:47:00,80.1,63.5,29.32,NNE,13,0.0,3.0,57,0.00,,,0.00,meteohub,2013-07-26 17:47:00,
2013-07-26 13:52:00,80.2,65.1,29.32,SE,138,0.0,3.0,60,0.00,,,0.00,meteohub,2013-07-26 17:52:00,
2013-07-26 13:57:00,80.2,63.7,29.32,SSW,202,0.0,0.0,57,0.00,,,0.00,meteohub,2013-07-26 17:57:00,
2013-07-26 14:02:00,79.9,63.3,29.33,NE,38,0.0,0.0,57,0.00,,,0.00,meteohub,2013-07-26 18:02:00,
2013-07-26 14:07:00,79.7,63.7,29.32,NE,38,0.0,0.0,58,0.00,,,0.00,meteohub,2013-07-26 18:07:00,
2013-07-26 14:13:00,79.3,63.7,29.32,NE,38,0.0,0.0,59,0.00,,,0.00,meteohub,2013-07-26 18:13:00,
2013-07-26 14:18:00,79.3,64.2,29.32,NE,38,0.0,0.0,60,0.00,,,0.00,meteohub,2013-07-26 18:18:00,
2013-07-26 14:23:00,78.8,62.8,29.32,NNE,17,0.0,2.0,58,0.00,,,0.00,meteohub,2013-07-26 18:23:00,
2013-07-26 14:28:00,78.6,62.6,29.32,NNE,17,0.0,2.0,58,0.00,,,0.00,meteohub,2013-07-26 18:28:00,
2013-07-26 14:33:00,79.0,63.0,29.32,ENE,59,0.0,2.0,58,0.00,,,0.00,meteohub,2013-07-26 18:33:00,
2013-07-26 14:38:00,78.6,62.6,29.32,ENE,59,0.0,0.0,58,0.00,,,0.00,meteohub,2013-07-26 18:38:00,
2013-07-26 14:43:00,78.6,61.5,29.32,ENE,61,0.0,0.0,56,0.00,,,0.00,meteohub,2013-07-26 18:43:00,
2013-07-26 14:48:00,78.8,63.3,29.32,South,182,0.0,4.0,59,0.00,,,0.00,meteohub,2013-07-26 18:48:00,
2013-07-26 14:53:00,79.0,61.5,29.32,East,84,0.0,4.0,55,0.00,,,0.00,meteohub,2013-07-26 18:53:00,
2013-07-26 14:58:00,78.8,62.2,29.32,ENE,61,0.0,4.0,57,0.00,,,0.00,meteohub,2013-07-26 18:58:00,
2013-07-26 15:03:00,79.0,63.9,29.32,ENE,61,0.0,0.0,60,0.00,,,0.00,meteohub,2013-07-26 19:03:00,
2013-07-26 15:08:00,79.3,62.8,29.32,South,184,0.0,0.0,57,0.00,,,0.00,meteohub,2013-07-26 19:08:00,
2013-07-26 15:13:00,79.9,63.9,29.32,NNE,32,0.0,0.0,58,0.00,,,0.00,meteohub,2013-07-26 19:13:00,
2013-07-26 15:18:00,80.1,63.9,29.32,SSW,201,0.0,3.0,58,0.00,,,0.00,meteohub,2013-07-26 19:18:00,
2013-07-26 15:23:00,80.1,61.9,29.32,ENE,71,0.0,3.0,54,0.00,,,0.00,meteohub,2013-07-26 19:23:00,
2013-07-26 15:28:00,80.6,64.4,29.32,NE,51,0.0,3.0,58,0.00,,,0.00,meteohub,2013-07-26 19:28:00,
2013-07-26 15:33:00,81.0,64.2,29.32,NE,51,0.0,2.0,57,0.00,,,0.00,meteohub,2013-07-26 19:33:00,
2013-07-26 15:38:00,81.1,62.4,29.32,ENE,69,0.0,0.0,53,0.00,,,0.00,meteohub,2013-07-26 19:38:00,
2013-07-26 15:43:00,81.1,62.4,29.32,ENE,69,0.0,1.0,53,0.00,,,0.00,meteohub,2013-07-26 19:43:00,
2013-07-26 15:48:00,81.3,64.0,29.32,ENE,69,0.0,1.0,56,0.00,,,0.00,meteohub,2013-07-26 19:48:00,
2013-07-26 15:53:00,81.3,63.7,29.32,WNW,299,0.0,1.0,55,0.00,,,0.00,meteohub,2013-07-26 19:53:00,
2013-07-26 15:58:00,81.5,62.8,29.32,NE,40,0.0,1.0,53,0.00,,,0.00,meteohub,2013-07-26 19:58:00,
2013-07-26 16:03:00,81.1,63.0,29.31,WNW,298,0.0,1.0,54,0.00,,,0.00,meteohub,2013-07-26 20:03:00,
2013-07-26 16:08:00,81.0,63.3,29.31,West,274,0.0,1.0,55,0.00,,,0.00,meteohub,2013-07-26 20:08:00,
2013-07-26 16:13:00,81.1,63.5,29.31,West,274,0.0,1.0,55,0.00,,,0.00,meteohub,2013-07-26 20:13:00,
2013-07-26 16:18:00,81.0,62.8,29.31,WNW,292,0.0,1.0,54,0.00,,,0.00,meteohub,2013-07-26 20:18:00,
2013-07-26 16:23:00,81.0,64.2,29.31,WNW,292,0.0,0.0,57,0.00,,,0.00,meteohub,2013-07-26 20:23:00,
2013-07-26 16:28:00,81.1,63.0,29.31,WNW,292,0.0,0.0,54,0.00,,,0.00,meteohub,2013-07-26 20:28:00,
2013-07-26 16:33:00,81.3,64.0,29.31,WNW,292,0.0,0.0,56,0.00,,,0.00,meteohub,2013-07-26 20:33:00,
2013-07-26 16:38:00,81.3,62.6,29.31,NW,316,0.0,1.0,53,0.00,,,0.00,meteohub,2013-07-26 20:38:00,
2013-07-26 16:43:00,81.0,62.8,29.31,NW,316,0.0,1.0,54,0.00,,,0.00,meteohub,2013-07-26 20:43:00,
2013-07-26 16:48:00,80.8,62.1,29.31,NW,316,0.0,1.0,53,0.00,,,0.00,meteohub,2013-07-26 20:48:00,
2013-07-26 16:53:00,80.8,62.6,29.31,SSW,195,0.0,0.0,54,0.00,,,0.00,meteohub,2013-07-26 20:53:00,
2013-07-26 16:58:00,80.8,63.7,29.31,NE,49,0.0,0.0,56,0.00,,,0.00,meteohub,2013-07-26 20:58:00,
2013-07-26 17:03:00,81.1,62.4,29.31,East,86,0.0,1.0,53,0.00,,,0.00,meteohub,2013-07-26 21:03:00,
2013-07-26 17:08:00,81.3,62.1,29.31,ENE,57,0.0,1.0,52,0.00,,,0.00,meteohub,2013-07-26 21:08:00,
2013-07-26 17:13:00,81.7,63.0,29.31,South,178,0.0,1.0,53,0.00,,,0.00,meteohub,2013-07-26 21:13:00,
2013-07-26 17:19:00,81.9,62.4,29.31,SE,141,0.0,0.0,52,0.00,,,0.00,meteohub,2013-07-26 21:19:00,
2013-07-26 17:24:00,82.2,63.9,29.31,SE,141,0.0,0.0,54,0.00,,,0.00,meteohub,2013-07-26 21:24:00,
2013-07-26 17:29:00,82.6,62.6,29.31,SE,126,0.0,0.0,51,0.00,,,0.00,meteohub,2013-07-26 21:29:00,
2013-07-26 17:34:00,82.6,61.0,29.31,ENE,76,0.0,0.0,48,0.00,,,0.00,meteohub,2013-07-26 21:34:00,
2013-07-26 17:38:00,82.6,61.5,29.31,ENE,76,0.0,0.0,49,0.00,,,0.00,meteohub,2013-07-26 21:38:00,
2013-07-26 17:43:00,82.8,61.7,29.31,ENE,76,0.0,0.0,49,0.00,,,0.00,meteohub,2013-07-26 21:43:00,
2013-07-26 17:49:00,82.9,61.9,29.31,ENE,76,0.0,0.0,49,0.00,,,0.00,meteohub,2013-07-26 21:49:00,
2013-07-26 17:54:00,82.9,64.6,29.31,South,175,0.0,0.0,54,0.00,,,0.00,meteohub,2013-07-26 21:54:00,
2013-07-26 17:59:00,82.9,62.4,29.31,South,175,0.0,0.0,50,0.00,,,0.00,meteohub,2013-07-26 21:59:00,
2013-07-26 18:04:00,82.9,63.0,29.31,South,175,0.0,0.0,51,0.00,,,0.00,meteohub,2013-07-26 22:04:00,
2013-07-26 18:09:00,82.9,61.9,29.31,South,175,0.0,0.0,49,0.00,,,0.00,meteohub,2013-07-26 22:09:00,
2013-07-26 18:14:00,82.9,62.4,29.31,ENE,62,0.0,0.0,50,0.00,,,0.00,meteohub,2013-07-26 22:14:00,
2013-07-26 18:19:00,82.9,62.4,29.31,ENE,62,0.0,0.0,50,0.00,,,0.00,meteohub,2013-07-26 22:19:00,
2013-07-26 18:24:00,82.9,61.9,29.31,ENE,62,0.0,0.0,49,0.00,,,0.00,meteohub,2013-07-26 22:24:00,
2013-07-26 18:29:00,83.1,63.7,29.30,ENE,62,0.0,0.0,52,0.00,,,0.00,meteohub,2013-07-26 22:29:00,
2013-07-26 18:34:00,83.1,63.1,29.31,ENE,62,0.0,0.0,51,0.00,,,0.00,meteohub,2013-07-26 22:34:00,
2013-07-26 18:39:00,83.1,63.1,29.31,ENE,62,0.0,0.0,51,0.00,,,0.00,meteohub,2013-07-26 22:39:00,
2013-07-26 18:44:00,83.1,63.1,29.31,ENE,62,0.0,0.0,51,0.00,,,0.00,meteohub,2013-07-26 22:44:00,
2013-07-26 18:49:00,83.1,62.6,29.31,ENE,62,0.0,0.0,50,0.00,,,0.00,meteohub,2013-07-26 22:49:00,
2013-07-26 18:54:00,82.9,62.4,29.31,ENE,62,0.0,0.0,50,0.00,,,0.00,meteohub,2013-07-26 22:54:00,
2013-07-26 18:59:00,82.6,63.7,29.30,ENE,62,0.0,0.0,53,0.00,,,0.00,meteohub,2013-07-26 22:59:00,
2013-07-26 19:04:00,82.2,63.3,29.30,ENE,62,0.0,0.0,53,0.00,,,0.00,meteohub,2013-07-26 23:04:00,
2013-07-26 19:09:00,82.0,63.1,29.31,ENE,62,0.0,0.0,53,0.00,,,0.00,meteohub,2013-07-26 23:09:00,
2013-07-26 19:14:00,81.5,63.9,29.31,ENE,62,0.0,0.0,55,0.00,,,0.00,meteohub,2013-07-26 23:14:00,
2013-07-26 19:19:00,81.0,63.3,29.31,ENE,62,0.0,0.0,55,0.00,,,0.00,meteohub,2013-07-26 23:19:00,
2013-07-26 19:24:00,80.4,62.8,29.31,ENE,62,0.0,0.0,55,0.00,,,0.00,meteohub,2013-07-26 23:24:00,
2013-07-26 19:29:00,79.9,61.7,29.31,ENE,62,0.0,0.0,54,0.00,,,0.00,meteohub,2013-07-26 23:29:00,
2013-07-26 19:34:00,79.2,62.6,29.31,ENE,62,0.0,0.0,57,0.00,,,0.00,meteohub,2013-07-26 23:34:00,
2013-07-26 19:39:00,78.4,61.9,29.31,ENE,62,0.0,0.0,57,0.00,,,0.00,meteohub,2013-07-26 23:39:00,
2013-07-26 19:44:00,77.9,61.9,29.31,ENE,62,0.0,0.0,58,0.00,,,0.00,meteohub,2013-07-26 23:44:00,
2013-07-26 19:49:00,77.4,61.3,29.31,ENE,62,0.0,0.0,58,0.00,,,0.00,meteohub,2013-07-26 23:49:00,
2013-07-26 19:54:00,76.6,61.2,29.31,ENE,62,0.0,0.0,59,0.00,,,0.00,meteohub,2013-07-26 23:54:00,
2013-07-26 19:59:00,76.3,61.3,29.31,ENE,62,0.0,0.0,60,0.00,,,0.00,meteohub,2013-07-26 23:59:00,
2013-07-26 20:04:00,75.6,60.6,29.31,ENE,62,0.0,0.0,60,0.00,,,0.00,meteohub,2013-07-27 00:04:00,
2013-07-26 20:09:00,75.0,61.5,29.31,ENE,62,0.0,0.0,63,0.00,,,0.00,meteohub,2013-07-27 00:09:00,
2013-07-26 20:14:00,74.5,61.5,29.32,ENE,62,0.0,0.0,64,0.00,,,0.00,meteohub,2013-07-27 00:14:00,
2013-07-26 20:19:00,73.9,61.3,29.31,ENE,62,0.0,0.0,65,0.00,,,0.00,meteohub,2013-07-27 00:19:00,
2013-07-26 20:24:00,73.4,61.7,29.31,ENE,62,0.0,0.0,67,0.00,,,0.00,meteohub,2013-07-27 00:24:00,
2013-07-26 20:29:00,73.0,62.2,29.31,ENE,62,0.0,0.0,69,0.00,,,0.00,meteohub,2013-07-27 00:29:00,
2013-07-26 20:34:00,72.5,61.7,29.31,ENE,62,0.0,0.0,69,0.00,,,0.00,meteohub,2013-07-27 00:34:00,
2013-07-26 20:40:00,72.0,61.7,29.31,ENE,62,0.0,0.0,70,0.00,,,0.00,meteohub,2013-07-27 00:40:00,
2013-07-26 20:45:00,71.6,61.7,29.32,ENE,62,0.0,0.0,71,0.00,,,0.00,meteohub,2013-07-27 00:45:00,
2013-07-26 20:50:00,71.2,61.3,29.32,ENE,62,0.0,0.0,71,0.00,,,0.00,meteohub,2013-07-27 00:50:00,
2013-07-26 20:55:00,70.9,61.3,29.32,ENE,62,0.0,0.0,72,0.00,,,0.00,meteohub,2013-07-27 00:55:00,
2013-07-26 21:00:00,70.3,60.8,29.32,ENE,62,0.0,0.0,72,0.00,,,0.00,meteohub,2013-07-27 01:00:00,
2013-07-26 21:05:00,70.0,61.0,29.32,ENE,62,0.0,0.0,73,0.00,,,0.00,meteohub,2013-07-27 01:05:00,
2013-07-26 21:10:00,69.4,60.8,29.32,ENE,62,0.0,0.0,74,0.00,,,0.00,meteohub,2013-07-27 01:10:00,
2013-07-26 21:15:00,69.3,60.6,29.32,ENE,62,0.0,0.0,74,0.00,,,0.00,meteohub,2013-07-27 01:15:00,
2013-07-26 21:20:00,68.7,60.4,29.32,ENE,62,0.0,0.0,75,0.00,,,0.00,meteohub,2013-07-27 01:20:00,
2013-07-26 21:25:00,68.4,60.1,29.32,ENE,62,0.0,0.0,75,0.00,,,0.00,meteohub,2013-07-27 01:25:00,
2013-07-26 21:30:00,68.2,59.9,29.32,ENE,62,0.0,0.0,75,0.00,,,0.00,meteohub,2013-07-27 01:30:00,
2013-07-26 21:35:00,67.8,59.5,29.32,ENE,62,0.0,0.0,75,0.00,,,0.00,meteohub,2013-07-27 01:35:00,
2013-07-26 21:40:00,67.5,59.2,29.32,ENE,62,0.0,0.0,75,0.00,,,0.00,meteohub,2013-07-27 01:40:00,
2013-07-26 21:45:00,67.3,59.0,29.32,ENE,62,0.0,0.0,75,0.00,,,0.00,meteohub,2013-07-27 01:45:00,
2013-07-26 21:50:00,66.9,59.2,29.33,ENE,62,0.0,0.0,76,0.00,,,0.00,meteohub,2013-07-27 01:50:00,
2013-07-26 21:55:00,66.7,59.0,29.33,ENE,62,0.0,0.0,76,0.00,,,0.00,meteohub,2013-07-27 01:55:00,
2013-07-26 22:00:00,66.6,58.8,29.33,ENE,62,0.0,0.0,76,0.00,,,0.00,meteohub,2013-07-27 02:00:00,
2013-07-26 22:05:00,66.4,58.6,29.33,ENE,62,0.0,0.0,76,0.00,,,0.00,meteohub,2013-07-27 02:05:00,
2013-07-26 22:10:00,66.0,59.0,29.33,ENE,62,0.0,0.0,78,0.00,,,0.00,meteohub,2013-07-27 02:10:00,
2013-07-26 22:15:00,65.8,58.8,29.33,ENE,62,0.0,0.0,78,0.00,,,0.00,meteohub,2013-07-27 02:15:00,
2013-07-26 22:20:00,65.7,58.6,29.34,ENE,62,0.0,0.0,78,0.00,,,0.00,meteohub,2013-07-27 02:20:00,
2013-07-26 22:25:00,65.5,58.5,29.33,ENE,62,0.0,0.0,78,0.00,,,0.00,meteohub,2013-07-27 02:25:00,
2013-07-26 22:30:00,65.5,58.8,29.33,ENE,62,0.0,0.0,79,0.00,,,0.00,meteohub,2013-07-27 02:30:00,
2013-07-26 22:35:00,65.1,58.5,29.34,ENE,62,0.0,0.0,79,0.00,,,0.00,meteohub,2013-07-27 02:35:00,
2013-07-26 22:40:00,65.1,58.5,29.34,ENE,62,0.0,0.0,79,0.00,,,0.00,meteohub,2013-07-27 02:40:00,
2013-07-26 22:45:00,64.9,58.6,29.33,ENE,62,0.0,0.0,80,0.00,,,0.00,meteohub,2013-07-27 02:45:00,
2013-07-26 22:50:00,64.9,59.0,29.33,ENE,62,0.0,0.0,81,0.00,,,0.00,meteohub,2013-07-27 02:50:00,
2013-07-26 22:55:00,64.9,59.4,29.33,ENE,62,0.0,0.0,82,0.00,,,0.00,meteohub,2013-07-27 02:55:00,
2013-07-26 23:00:00,64.9,59.7,29.33,ENE,62,0.0,0.0,83,0.00,,,0.00,meteohub,2013-07-27 03:00:00,
2013-07-26 23:05:00,64.9,59.7,29.33,ENE,62,0.0,0.0,83,0.00,,,0.00,meteohub,2013-07-27 03:05:00,
2013-07-26 23:10:00,64.9,59.9,29.33,ENE,62,0.0,0.0,84,0.00,,,0.00,meteohub,2013-07-27 03:10:00,
2013-07-26 23:15:00,64.9,60.3,29.33,ENE,62,0.0,0.0,85,0.00,,,0.00,meteohub,2013-07-27 03:15:00,
2013-07-26 23:20:00,64.9,60.3,29.33,ENE,62,0.0,0.0,85,0.00,,,0.00,meteohub,2013-07-27 03:20:00,
2013-07-26 23:25:00,64.9,60.3,29.33,ENE,62,0.0,0.0,85,0.00,,,0.00,meteohub,2013-07-27 03:25:00,
2013-07-26 23:30:00,64.9,60.6,29.34,ENE,62,0.0,0.0,86,0.00,,,0.00,meteohub,2013-07-27 03:30:00,
2013-07-26 23:35:00,64.9,60.6,29.34,ENE,62,0.0,0.0,86,0.00,,,0.00,meteohub,2013-07-27 03:35:00,
2013-07-26 23:40:00,64.9,60.6,29.34,ENE,62,0.0,0.0,86,0.00,,,0.00,meteohub,2013-07-27 03:40:00,
2013-07-26 23:45:00,64.9,60.6,29.34,ENE,62,0.0,0.0,86,0.00,,,0.00,meteohub,2013-07-27 03:45:00,
2013-07-26 23:50:00,64.9,60.6,29.34,ENE,62,0.0,0.0,86,0.00,,,0.00,meteohub,2013-07-27 03:50:00,
2013-07-26 23:55:00,64.8,60.4,29.34,ENE,62,0.0,0.0,86,0.00,,,0.00,meteohub,2013-07-27 03:55:00,